Terug naar catalogus

SL-6 DEB

LostHEO
NORAD 18598·DEBRIS·🇷🇺 Russia

Gelanceerd Sep 11, 1981 vanaf Plesetsk Cosmodrome

Loading…

Volgende Passages (komende 24 uur)

TLE

VerouderdSource: Space-Track

Epoch: Oct 7, 2021, 02:11 UTC

1 18598U 81088N   21280.09150914  .00012743  00000-0  69934-3 0  9999
2 18598  62.8260 107.0671 4936798 258.0743  44.6414  5.80179780818087

Volg SL-6 DEB in realtime met AllMySat

Download on the App Store